owner,sensor,date,latitude,longitude,vertical_datum,sea_water_temperature,qcFlag 
TABS,ioos:station:wmo:42047:1,2008-07-06T17:00:00Z,27.8966,-93.5973,-2.0,29.17,11111222 
TABS,ioos:station:wmo:42047:1,2008-07-06T17:30:00Z,27.8966,-93.5973,-2.0,28.63,11111222 
TABS,ioos:station:wmo:42047:1,2008-07-06T18:00:00Z,27.8966,-93.5973,-2.0,28.47,11111222 
TABS,ioos:station:wmo:42047:1,2008-07-06T18:30:00Z,27.8966,-93.5973,-2.0,28.47,11111222 
TABS,ioos:station:wmo:42047:1,2008-07-06T19:00:00Z,27.8966,-93.5973,-2.0,28.49,11111222 
TABS,ioos:station:wmo:42047:1,2008-07-06T19:30:00Z,27.8966,-93.5973,-2.0,28.54,11111222 
TABS,ioos:station:wmo:42047:1,2008-07-06T20:00:00Z,27.8966,-93.5973,-2.0,28.54,11111222 
TABS,ioos:station:wmo:42047:1,2008-07-06T20:30:00Z,27.8966,-93.5973,-2.0,28.5,11111222 
TABS,ioos:station:wmo:42047:1,2008-07-06T21:00:00Z,27.8966,-93.5973,-2.0,28.52,11111222 
TABS,ioos:station:wmo:42047:1,2008-07-06T21:30:00Z,27.8966,-93.5973,-2.0,28.51,11111222 
TABS,ioos:station:wmo:42047:1,2008-07-06T22:00:00Z,27.8966,-93.5973,-2.0,28.5,11111222 
TABS,ioos:station:wmo:42047:1,2008-07-06T22:30:00Z,27.8966,-93.5973,-2.0,28.47,11111222 
TABS,ioos:station:wmo:42047:1,2008-07-06T23:00:00Z,27.8966,-93.5973,-2.0,28.49,11111222 
TABS,ioos:station:wmo:42047:1,2008-07-06T23:30:00Z,27.8966,-93.5973,-2.0,28.46,11111222 
TABS,ioos:station:wmo:42047:1,2008-07-07T00:00:00Z,27.8966,-93.5973,-2.0,28.46,11111222 
TABS,ioos:station:wmo:42047:1,2008-07-07T00:30:00Z,27.8966,-93.5973,-2.0,28.47,11111222 
TABS,ioos:station:wmo:42047:1,2008-07-07T01:00:00Z,27.8966,-93.5973,-2.0,28.47,11111222 
TABS,ioos:station:wmo:42047:1,2008-07-07T01:30:00Z,27.8966,-93.5973,-2.0,28.46,11111222 
TABS,ioos:station:wmo:42047:1,2008-07-07T02:00:00Z,27.8966,-93.5973,-2.0,28.44,11111222 
TABS,ioos:station:wmo:42047:1,2008-07-07T02:30:00Z,27.8966,-93.5973,-2.0,28.44,11111222 
TABS,ioos:station:wmo:42047:1,2008-07-07T03:00:00Z,27.8966,-93.5973,-2.0,28.49,11111222 
TABS,ioos:station:wmo:42047:1,2008-07-07T03:30:00Z,27.8966,-93.5973,-2.0,28.49,11111222 
TABS,ioos:station:wmo:42047:1,2008-07-07T04:00:00Z,27.8966,-93.5973,-2.0,28.49,11111222 
TABS,ioos:station:wmo:42047:1,2008-07-07T04:30:00Z,27.8966,-93.5973,-2.0,28.45,11111222 
TABS,ioos:station:wmo:42047:1,2008-07-07T05:00:00Z,27.8966,-93.5973,-2.0,28.45,11111222 
TABS,ioos:station:wmo:42047:1,2008-07-07T05:30:00Z,27.8966,-93.5973,-2.0,28.43,11111222 
TABS,ioos:station:wmo:42047:1,2008-07-07T06:00:00Z,27.8966,-93.5973,-2.0,28.42,11111222 
TABS,ioos:station:wmo:42047:1,2008-07-07T06:30:00Z,27.8966,-93.5973,-2.0,28.41,11111222 
TABS,ioos:station:wmo:42047:1,2008-07-07T07:00:00Z,27.8966,-93.5973,-2.0,28.4,11111222 
TABS,ioos:station:wmo:42047:1,2008-07-07T07:30:00Z,27.8966,-93.5973,-2.0,28.39,11111222 
TABS,ioos:station:wmo:42047:1,2008-07-07T08:00:00Z,27.8966,-93.5973,-2.0,28.38,11111222 
TABS,ioos:station:wmo:42047:1,2008-07-07T08:30:00Z,27.8966,-93.5973,-2.0,28.4,11111222 
TABS,ioos:station:wmo:42047:1,2008-07-07T09:00:00Z,27.8966,-93.5973,-2.0,28.39,11111222 
TABS,ioos:station:wmo:42047:1,2008-07-07T09:30:00Z,27.8966,-93.5973,-2.0,28.39,11111222 
TABS,ioos:station:wmo:42047:1,2008-07-07T10:00:00Z,27.8966,-93.5973,-2.0,28.38,11111222 
TABS,ioos:station:wmo:42047:1,2008-07-07T10:30:00Z,27.8966,-93.5973,-2.0,28.36,11111222 
TABS,ioos:station:wmo:42047:1,2008-07-07T11:00:00Z,27.8966,-93.5973,-2.0,28.36,11111222 
TABS,ioos:station:wmo:42047:1,2008-07-07T11:30:00Z,27.8966,-93.5973,-2.0,28.34,11111222 
TABS,ioos:station:wmo:42047:1,2008-07-07T12:00:00Z,27.8966,-93.5973,-2.0,28.33,11111222 
TABS,ioos:station:wmo:42047:1,2008-07-07T12:30:00Z,27.8966,-93.5973,-2.0,28.32,11111222 
TABS,ioos:station:wmo:42047:1,2008-07-07T13:00:00Z,27.8966,-93.5973,-2.0,28.32,11111222 
TABS,ioos:station:wmo:42047:1,2008-07-07T13:30:00Z,27.8966,-93.5973,-2.0,28.32,11111222 
TABS,ioos:station:wmo:42047:1,2008-07-07T14:00:00Z,27.8966,-93.5973,-2.0,28.31,11111222 
TABS,ioos:station:wmo:42047:1,2008-07-07T14:30:00Z,27.8966,-93.5973,-2.0,28.32,11111222 
TABS,ioos:station:wmo:42047:1,2008-07-07T15:00:00Z,27.8966,-93.5973,-2.0,28.33,11111222 
TABS,ioos:station:wmo:42047:1,2008-07-07T15:30:00Z,27.8966,-93.5973,-2.0,28.36,11111222 
TABS,ioos:station:wmo:42047:1,2008-07-07T16:00:00Z,27.8966,-93.5973,-2.0,28.36,11111222 
TABS,ioos:station:wmo:42047:1,2008-07-07T16:30:00Z,27.8966,-93.5973,-2.0,28.38,11111222 
TABS,ioos:station:wmo:42047:1,2008-07-07T17:00:00Z,27.8966,-93.5973,-2.0,28.4,11111222 
TABS,ioos:station:wmo:42047:1,2008-07-07T17:30:00Z,27.8966,-93.5973,-2.0,28.43,11111222 
TABS,ioos:station:wmo:42047:1,2008-07-07T18:00:00Z,27.8966,-93.5973,-2.0,28.46,11111222 
TABS,ioos:station:wmo:42047:1,2008-07-07T18:30:00Z,27.8966,-93.5973,-2.0,28.5,11111222 
TABS,ioos:station:wmo:42047:1,2008-07-07T19:00:00Z,27.8966,-93.5973,-2.0,28.53,11111222 
TABS,ioos:station:wmo:42047:1,2008-07-07T19:30:00Z,27.8966,-93.5973,-2.0,28.56,11111222 
TABS,ioos:station:wmo:42047:1,2008-07-07T20:00:00Z,27.8966,-93.5973,-2.0,28.58,11111222 
TABS,ioos:station:wmo:42047:1,2008-07-07T20:30:00Z,27.8966,-93.5973,-2.0,28.6,11111222 
TABS,ioos:station:wmo:42047:1,2008-07-07T21:00:00Z,27.8966,-93.5973,-2.0,28.62,11111222 
TABS,ioos:station:wmo:42047:1,2008-07-07T21:30:00Z,27.8966,-93.5973,-2.0,28.62,11111222 
TABS,ioos:station:wmo:42047:1,2008-07-07T22:00:00Z,27.8966,-93.5973,-2.0,28.64,11111222 
TABS,ioos:station:wmo:42047:1,2008-07-07T22:30:00Z,27.8966,-93.5973,-2.0,28.73,11111222 
TABS,ioos:station:wmo:42047:1,2008-07-07T23:00:00Z,27.8966,-93.5973,-2.0,28.69,11111222 
TABS,ioos:station:wmo:42047:1,2008-07-07T23:30:00Z,27.8966,-93.5973,-2.0,28.68,11111222 
TABS,ioos:station:wmo:42047:1,2008-07-08T00:00:00Z,27.8966,-93.5973,-2.0,28.66,11111222 
TABS,ioos:station:wmo:42047:1,2008-07-08T00:30:00Z,27.8966,-93.5973,-2.0,28.64,11111222 
TABS,ioos:station:wmo:42047:1,2008-07-08T01:00:00Z,27.8966,-93.5973,-2.0,28.61,11111222 
TABS,ioos:station:wmo:42047:1,2008-07-08T01:30:00Z,27.8966,-93.5973,-2.0,28.59,11111222 
TABS,ioos:station:wmo:42047:1,2008-07-08T02:00:00Z,27.8966,-93.5973,-2.0,28.57,11111222 
TABS,ioos:station:wmo:42047:1,2008-07-08T02:30:00Z,27.8966,-93.5973,-2.0,28.58,11111222 
TABS,ioos:station:wmo:42047:1,2008-07-08T03:00:00Z,27.8966,-93.5973,-2.0,28.55,11111222 
TABS,ioos:station:wmo:42047:1,2008-07-08T03:30:00Z,27.8966,-93.5973,-2.0,28.52,11111222 
TABS,ioos:station:wmo:42047:1,2008-07-08T04:00:00Z,27.8966,-93.5973,-2.0,28.51,11111222 
TABS,ioos:station:wmo:42047:1,2008-07-08T04:30:00Z,27.8966,-93.5973,-2.0,28.5,11111222 
TABS,ioos:station:wmo:42047:1,2008-07-08T05:00:00Z,27.8966,-93.5973,-2.0,28.49,11111222 
TABS,ioos:station:wmo:42047:1,2008-07-08T05:30:00Z,27.8966,-93.5973,-2.0,28.47,11111222 
TABS,ioos:station:wmo:42047:1,2008-07-08T06:00:00Z,27.8966,-93.5973,-2.0,28.45,11111222 
TABS,ioos:station:wmo:42047:1,2008-07-08T06:30:00Z,27.8966,-93.5973,-2.0,28.45,11111222 
TABS,ioos:station:wmo:42047:1,2008-07-08T07:00:00Z,27.8966,-93.5973,-2.0,28.44,11111222 
TABS,ioos:station:wmo:42047:1,2008-07-08T07:30:00Z,27.8966,-93.5973,-2.0,28.42,11111222 
TABS,ioos:station:wmo:42047:1,2008-07-08T08:00:00Z,27.8966,-93.5973,-2.0,28.4,11111222 
TABS,ioos:station:wmo:42047:1,2008-07-08T08:30:00Z,27.8966,-93.5973,-2.0,28.37,11111222 
TABS,ioos:station:wmo:42047:1,2008-07-08T09:00:00Z,27.8966,-93.5973,-2.0,28.36,11111222 
TABS,ioos:station:wmo:42047:1,2008-07-08T09:30:00Z,27.8966,-93.5973,-2.0,28.35,11111222 
TABS,ioos:station:wmo:42047:1,2008-07-08T10:00:00Z,27.8966,-93.5973,-2.0,28.35,11111222 
TABS,ioos:station:wmo:42047:1,2008-07-08T10:30:00Z,27.8966,-93.5973,-2.0,28.35,11111222 
TABS,ioos:station:wmo:42047:1,2008-07-08T11:00:00Z,27.8966,-93.5973,-2.0,28.36,11111222 
TABS,ioos:station:wmo:42047:1,2008-07-08T11:30:00Z,27.8966,-93.5973,-2.0,28.36,11111222 
TABS,ioos:station:wmo:42047:1,2008-07-08T12:00:00Z,27.8966,-93.5973,-2.0,28.38,11111222 
TABS,ioos:station:wmo:42047:1,2008-07-08T12:30:00Z,27.8966,-93.5973,-2.0,28.37,11111222 
TABS,ioos:station:wmo:42047:1,2008-07-08T13:00:00Z,27.8966,-93.5973,-2.0,28.37,11111222 
TABS,ioos:station:wmo:42047:1,2008-07-08T13:30:00Z,27.8966,-93.5973,-2.0,28.38,11111222 
TABS,ioos:station:wmo:42047:1,2008-07-08T14:00:00Z,27.8966,-93.5973,-2.0,28.4,11111222 
TABS,ioos:station:wmo:42047:1,2008-07-08T14:30:00Z,27.8966,-93.5973,-2.0,28.41,11111222 
TABS,ioos:station:wmo:42047:1,2008-07-08T15:00:00Z,27.8966,-93.5973,-2.0,28.43,11111222 
TABS,ioos:station:wmo:42047:1,2008-07-08T15:30:00Z,27.8966,-93.5973,-2.0,28.45,11111222 
TABS,ioos:station:wmo:42047:1,2008-07-08T16:00:00Z,27.8966,-93.5973,-2.0,28.47,11111222 
TABS,ioos:station:wmo:42047:1,2008-07-08T16:30:00Z,27.8966,-93.5973,-2.0,28.5,11111222 
TABS,ioos:station:wmo:42047:1,2008-07-08T17:00:00Z,27.8966,-93.5973,-2.0,28.55,11111222 
TABS,ioos:station:wmo:42047:1,2008-07-08T17:30:00Z,27.8966,-93.5973,-2.0,28.57,11111222 
TABS,ioos:station:wmo:42047:1,2008-07-08T18:00:00Z,27.8966,-93.5973,-2.0,28.59,11111222 
TABS,ioos:station:wmo:42047:1,2008-07-08T18:30:00Z,27.8966,-93.5973,-2.0,28.63,11111222 
TABS,ioos:station:wmo:42047:1,2008-07-08T19:00:00Z,27.8966,-93.5973,-2.0,28.66,11111222 
TABS,ioos:station:wmo:42047:1,2008-07-08T19:30:00Z,27.8966,-93.5973,-2.0,28.71,11111222 
TABS,ioos:station:wmo:42047:1,2008-07-08T20:00:00Z,27.8966,-93.5973,-2.0,28.75,11111222 
TABS,ioos:station:wmo:42047:1,2008-07-08T20:30:00Z,27.8966,-93.5973,-2.0,28.82,11111222 
TABS,ioos:station:wmo:42047:1,2008-07-08T21:00:00Z,27.8966,-93.5973,-2.0,28.9,11111222 
TABS,ioos:station:wmo:42047:1,2008-07-08T21:30:00Z,27.8966,-93.5973,-2.0,29.01,11111222 
TABS,ioos:station:wmo:42047:1,2008-07-08T22:00:00Z,27.8966,-93.5973,-2.0,29.03,11111222 
TABS,ioos:station:wmo:42047:1,2008-07-08T22:30:00Z,27.8966,-93.5973,-2.0,29.02,11111222 
TABS,ioos:station:wmo:42047:1,2008-07-08T23:00:00Z,27.8966,-93.5973,-2.0,29.03,11111222 
TABS,ioos:station:wmo:42047:1,2008-07-08T23:30:00Z,27.8966,-93.5973,-2.0,29.03,11111222 
TABS,ioos:station:wmo:42047:1,2008-07-09T00:00:00Z,27.8966,-93.5973,-2.0,29.01,11111222 
TABS,ioos:station:wmo:42047:1,2008-07-09T00:30:00Z,27.8966,-93.5973,-2.0,28.98,11111222 
TABS,ioos:station:wmo:42047:1,2008-07-09T01:00:00Z,27.8966,-93.5973,-2.0,28.94,11111222 
TABS,ioos:station:wmo:42047:1,2008-07-09T01:30:00Z,27.8966,-93.5973,-2.0,28.9,11111222 
TABS,ioos:station:wmo:42047:1,2008-07-09T02:00:00Z,27.8966,-93.5973,-2.0,28.87,11111222 
TABS,ioos:station:wmo:42047:1,2008-07-09T02:30:00Z,27.8966,-93.5973,-2.0,28.85,11111222 
TABS,ioos:station:wmo:42047:1,2008-07-09T03:00:00Z,27.8966,-93.5973,-2.0,28.82,11111222 
TABS,ioos:station:wmo:42047:1,2008-07-09T03:30:00Z,27.8966,-93.5973,-2.0,28.79,11111222 
TABS,ioos:station:wmo:42047:1,2008-07-09T04:00:00Z,27.8966,-93.5973,-2.0,28.78,11111222 
TABS,ioos:station:wmo:42047:1,2008-07-09T04:30:00Z,27.8966,-93.5973,-2.0,28.76,11111222 
TABS,ioos:station:wmo:42047:1,2008-07-09T05:00:00Z,27.8966,-93.5973,-2.0,28.73,11111222 
TABS,ioos:station:wmo:42047:1,2008-07-09T05:30:00Z,27.8966,-93.5973,-2.0,28.71,11111222 
TABS,ioos:station:wmo:42047:1,2008-07-09T06:00:00Z,27.8966,-93.5973,-2.0,28.69,11111222 
TABS,ioos:station:wmo:42047:1,2008-07-09T06:30:00Z,27.8966,-93.5973,-2.0,28.69,11111222 
TABS,ioos:station:wmo:42047:1,2008-07-09T07:00:00Z,27.8966,-93.5973,-2.0,28.67,11111222 
TABS,ioos:station:wmo:42047:1,2008-07-09T07:30:00Z,27.8966,-93.5973,-2.0,28.67,11111222 
TABS,ioos:station:wmo:42047:1,2008-07-09T08:00:00Z,27.8966,-93.5973,-2.0,28.67,11111222 
TABS,ioos:station:wmo:42047:1,2008-07-09T08:30:00Z,27.8966,-93.5973,-2.0,28.66,11111222 
TABS,ioos:station:wmo:42047:1,2008-07-09T09:00:00Z,27.8966,-93.5973,-2.0,28.65,11111222 
TABS,ioos:station:wmo:42047:1,2008-07-09T09:30:00Z,27.8966,-93.5973,-2.0,28.63,11111222 
TABS,ioos:station:wmo:42047:1,2008-07-09T10:00:00Z,27.8966,-93.5973,-2.0,28.63,11111222 
TABS,ioos:station:wmo:42047:1,2008-07-09T10:30:00Z,27.8966,-93.5973,-2.0,28.63,11111222 
TABS,ioos:station:wmo:42047:1,2008-07-09T11:00:00Z,27.8966,-93.5973,-2.0,28.65,11111222 
TABS,ioos:station:wmo:42047:1,2008-07-09T11:30:00Z,27.8966,-93.5973,-2.0,28.65,11111222 
TABS,ioos:station:wmo:42047:1,2008-07-09T12:00:00Z,27.8966,-93.5973,-2.0,28.63,11111222 
TABS,ioos:station:wmo:42047:1,2008-07-09T12:30:00Z,27.8966,-93.5973,-2.0,28.6,11111222 
TABS,ioos:station:wmo:42047:1,2008-07-09T13:00:00Z,27.8966,-93.5973,-2.0,28.59,11111222 
TABS,ioos:station:wmo:42047:1,2008-07-09T13:30:00Z,27.8966,-93.5973,-2.0,28.56,11111222 
TABS,ioos:station:wmo:42047:1,2008-07-09T14:00:00Z,27.8966,-93.5973,-2.0,28.57,11111222 
TABS,ioos:station:wmo:42047:1,2008-07-09T14:30:00Z,27.8966,-93.5973,-2.0,28.56,11111222 
TABS,ioos:station:wmo:42047:1,2008-07-09T15:00:00Z,27.8966,-93.5973,-2.0,28.56,11111222 
TABS,ioos:station:wmo:42047:1,2008-07-09T15:30:00Z,27.8966,-93.5973,-2.0,28.6,11111222 
TABS,ioos:station:wmo:42047:1,2008-07-09T16:00:00Z,27.8966,-93.5973,-2.0,28.64,11111222 
TABS,ioos:station:wmo:42047:1,2008-07-09T16:30:00Z,27.8966,-93.5973,-2.0,28.7,11111222 
TABS,ioos:station:wmo:42047:1,2008-07-09T17:00:00Z,27.8966,-93.5973,-2.0,28.78,11111222 
TABS,ioos:station:wmo:42047:1,2008-07-09T17:30:00Z,27.8966,-93.5973,-2.0,28.84,11111222 
TABS,ioos:station:wmo:42047:1,2008-07-09T18:00:00Z,27.8966,-93.5973,-2.0,28.86,11111222 
TABS,ioos:station:wmo:42047:1,2008-07-09T18:30:00Z,27.8966,-93.5973,-2.0,28.77,11111222 
TABS,ioos:station:wmo:42047:1,2008-07-09T19:00:00Z,27.8966,-93.5973,-2.0,28.84,11111222 
TABS,ioos:station:wmo:42047:1,2008-07-09T19:30:00Z,27.8966,-93.5973,-2.0,28.97,11111222 
TABS,ioos:station:wmo:42047:1,2008-07-09T20:00:00Z,27.8966,-93.5973,-2.0,29.03,11111222 
TABS,ioos:station:wmo:42047:1,2008-07-09T20:30:00Z,27.8966,-93.5973,-2.0,29.05,11111222 
TABS,ioos:station:wmo:42047:1,2008-07-09T21:00:00Z,27.8966,-93.5973,-2.0,29.08,11111222 
TABS,ioos:station:wmo:42047:1,2008-07-09T21:30:00Z,27.8966,-93.5973,-2.0,29.09,11111222 
TABS,ioos:station:wmo:42047:1,2008-07-09T22:00:00Z,27.8966,-93.5973,-2.0,29.13,11111222 
TABS,ioos:station:wmo:42047:1,2008-07-09T22:30:00Z,27.8966,-93.5973,-2.0,29.13,11111222 
TABS,ioos:station:wmo:42047:1,2008-07-09T23:00:00Z,27.8966,-93.5973,-2.0,29.12,11111222 
TABS,ioos:station:wmo:42047:1,2008-07-09T23:30:00Z,27.8966,-93.5973,-2.0,29.06,11111222 
TABS,ioos:station:wmo:42047:1,2008-07-10T00:00:00Z,27.8966,-93.5973,-2.0,29.03,11111222 
TABS,ioos:station:wmo:42047:1,2008-07-10T00:30:00Z,27.8966,-93.5973,-2.0,29.0,11111222 
TABS,ioos:station:wmo:42047:1,2008-07-10T01:00:00Z,27.8966,-93.5973,-2.0,28.97,11111222 
TABS,ioos:station:wmo:42047:1,2008-07-10T01:30:00Z,27.8966,-93.5973,-2.0,28.92,11111222 
TABS,ioos:station:wmo:42047:1,2008-07-10T02:00:00Z,27.8966,-93.5973,-2.0,28.88,11111222 
TABS,ioos:station:wmo:42047:1,2008-07-10T02:30:00Z,27.8966,-93.5973,-2.0,28.84,11111222 
TABS,ioos:station:wmo:42047:1,2008-07-10T03:00:00Z,27.8966,-93.5973,-2.0,28.81,11111222 
TABS,ioos:station:wmo:42047:1,2008-07-10T03:30:00Z,27.8966,-93.5973,-2.0,28.8,11111222 
TABS,ioos:station:wmo:42047:1,2008-07-10T04:00:00Z,27.8966,-93.5973,-2.0,28.8,11111222 
TABS,ioos:station:wmo:42047:1,2008-07-10T04:30:00Z,27.8966,-93.5973,-2.0,28.79,11111222 
TABS,ioos:station:wmo:42047:1,2008-07-10T05:00:00Z,27.8966,-93.5973,-2.0,28.79,11111222 
TABS,ioos:station:wmo:42047:1,2008-07-10T05:30:00Z,27.8966,-93.5973,-2.0,28.8,11111222 
TABS,ioos:station:wmo:42047:1,2008-07-10T06:00:00Z,27.8966,-93.5973,-2.0,28.8,11111222 
TABS,ioos:station:wmo:42047:1,2008-07-10T06:30:00Z,27.8966,-93.5973,-2.0,28.8,11111222 
TABS,ioos:station:wmo:42047:1,2008-07-10T07:00:00Z,27.8966,-93.5973,-2.0,28.8,11111222 
TABS,ioos:station:wmo:42047:1,2008-07-10T07:30:00Z,27.8966,-93.5973,-2.0,28.79,11111222 
TABS,ioos:station:wmo:42047:1,2008-07-10T08:00:00Z,27.8966,-93.5973,-2.0,28.8,11111222 
TABS,ioos:station:wmo:42047:1,2008-07-10T08:30:00Z,27.8966,-93.5973,-2.0,28.78,11111222 
TABS,ioos:station:wmo:42047:1,2008-07-10T09:00:00Z,27.8966,-93.5973,-2.0,28.77,11111222 
TABS,ioos:station:wmo:42047:1,2008-07-10T09:30:00Z,27.8966,-93.5973,-2.0,28.76,11111222 
TABS,ioos:station:wmo:42047:1,2008-07-10T10:00:00Z,27.8966,-93.5973,-2.0,28.75,11111222 
TABS,ioos:station:wmo:42047:1,2008-07-10T10:30:00Z,27.8966,-93.5973,-2.0,28.74,11111222 
TABS,ioos:station:wmo:42047:1,2008-07-10T11:00:00Z,27.8966,-93.5973,-2.0,28.74,11111222 
TABS,ioos:station:wmo:42047:1,2008-07-10T11:30:00Z,27.8966,-93.5973,-2.0,28.74,11111222 
TABS,ioos:station:wmo:42047:1,2008-07-10T12:00:00Z,27.8966,-93.5973,-2.0,28.72,11111222 
TABS,ioos:station:wmo:42047:1,2008-07-10T12:30:00Z,27.8966,-93.5973,-2.0,28.69,11111222 
TABS,ioos:station:wmo:42047:1,2008-07-10T13:00:00Z,27.8966,-93.5973,-2.0,28.68,11111222 
TABS,ioos:station:wmo:42047:1,2008-07-10T13:30:00Z,27.8966,-93.5973,-2.0,28.67,11111222 
TABS,ioos:station:wmo:42047:1,2008-07-10T14:00:00Z,27.8966,-93.5973,-2.0,28.66,11111222 
TABS,ioos:station:wmo:42047:1,2008-07-10T14:30:00Z,27.8966,-93.5973,-2.0,28.69,11111222 
TABS,ioos:station:wmo:42047:1,2008-07-10T15:00:00Z,27.8966,-93.5973,-2.0,28.72,11111222 
TABS,ioos:station:wmo:42047:1,2008-07-10T15:30:00Z,27.8966,-93.5973,-2.0,28.75,11111222 
TABS,ioos:station:wmo:42047:1,2008-07-10T16:00:00Z,27.8966,-93.5973,-2.0,28.79,11111222 
TABS,ioos:station:wmo:42047:1,2008-07-10T16:30:00Z,27.8966,-93.5973,-2.0,28.85,11111222 
TABS,ioos:station:wmo:42047:1,2008-07-10T17:00:00Z,27.8966,-93.5973,-2.0,28.92,11111222 
TABS,ioos:station:wmo:42047:1,2008-07-10T17:30:00Z,27.8966,-93.5973,-2.0,28.97,11111222 
TABS,ioos:station:wmo:42047:1,2008-07-10T18:00:00Z,27.8966,-93.5973,-2.0,29.04,11111222 
TABS,ioos:station:wmo:42047:1,2008-07-10T18:30:00Z,27.8966,-93.5973,-2.0,29.23,11111222 
TABS,ioos:station:wmo:42047:1,2008-07-10T19:00:00Z,27.8966,-93.5973,-2.0,29.28,11111222 
TABS,ioos:station:wmo:42047:1,2008-07-10T19:30:00Z,27.8966,-93.5973,-2.0,29.35,11111222 
TABS,ioos:station:wmo:42047:1,2008-07-10T20:00:00Z,27.8966,-93.5973,-2.0,29.33,11111222 
TABS,ioos:station:wmo:42047:1,2008-07-10T20:30:00Z,27.8966,-93.5973,-2.0,29.33,11111222 
TABS,ioos:station:wmo:42047:1,2008-07-10T21:00:00Z,27.8966,-93.5973,-2.0,29.31,11111222 
TABS,ioos:station:wmo:42047:1,2008-07-10T21:30:00Z,27.8966,-93.5973,-2.0,29.36,11111222 
TABS,ioos:station:wmo:42047:1,2008-07-10T22:00:00Z,27.8966,-93.5973,-2.0,29.36,11111222 
TABS,ioos:station:wmo:42047:1,2008-07-10T22:30:00Z,27.8966,-93.5973,-2.0,29.35,11111222 
TABS,ioos:station:wmo:42047:1,2008-07-10T23:00:00Z,27.8966,-93.5973,-2.0,29.35,11111222 
TABS,ioos:station:wmo:42047:1,2008-07-10T23:30:00Z,27.8966,-93.5973,-2.0,29.37,11111222 
TABS,ioos:station:wmo:42047:1,2008-07-11T00:00:00Z,27.8966,-93.5973,-2.0,29.38,11111222 
TABS,ioos:station:wmo:42047:1,2008-07-11T00:30:00Z,27.8966,-93.5973,-2.0,29.33,11111222 
TABS,ioos:station:wmo:42047:1,2008-07-11T01:00:00Z,27.8966,-93.5973,-2.0,29.27,11111222 
TABS,ioos:station:wmo:42047:1,2008-07-11T01:30:00Z,27.8966,-93.5973,-2.0,29.22,11111222 
TABS,ioos:station:wmo:42047:1,2008-07-11T02:00:00Z,27.8966,-93.5973,-2.0,29.19,11111222 
TABS,ioos:station:wmo:42047:1,2008-07-11T02:30:00Z,27.8966,-93.5973,-2.0,29.15,11111222 
TABS,ioos:station:wmo:42047:1,2008-07-11T03:00:00Z,27.8966,-93.5973,-2.0,29.12,11111222 
TABS,ioos:station:wmo:42047:1,2008-07-11T03:30:00Z,27.8966,-93.5973,-2.0,29.07,11111222 
TABS,ioos:station:wmo:42047:1,2008-07-11T04:00:00Z,27.8966,-93.5973,-2.0,29.04,11111222 
TABS,ioos:station:wmo:42047:1,2008-07-11T04:30:00Z,27.8966,-93.5973,-2.0,29.02,11111222 
TABS,ioos:station:wmo:42047:1,2008-07-11T05:00:00Z,27.8966,-93.5973,-2.0,29.0,11111222 
TABS,ioos:station:wmo:42047:1,2008-07-11T05:30:00Z,27.8966,-93.5973,-2.0,28.96,11111222 
TABS,ioos:station:wmo:42047:1,2008-07-11T06:00:00Z,27.8966,-93.5973,-2.0,28.93,11111222 
TABS,ioos:station:wmo:42047:1,2008-07-11T06:30:00Z,27.8966,-93.5973,-2.0,28.92,11111222 
TABS,ioos:station:wmo:42047:1,2008-07-11T07:00:00Z,27.8966,-93.5973,-2.0,28.88,11111222 
TABS,ioos:station:wmo:42047:1,2008-07-11T07:30:00Z,27.8966,-93.5973,-2.0,28.85,11111222 
TABS,ioos:station:wmo:42047:1,2008-07-11T08:00:00Z,27.8966,-93.5973,-2.0,28.83,11111222 
TABS,ioos:station:wmo:42047:1,2008-07-11T08:30:00Z,27.8966,-93.5973,-2.0,28.81,11111222 
TABS,ioos:station:wmo:42047:1,2008-07-11T09:00:00Z,27.8966,-93.5973,-2.0,28.8,11111222 
TABS,ioos:station:wmo:42047:1,2008-07-11T09:30:00Z,27.8966,-93.5973,-2.0,28.77,11111222 
TABS,ioos:station:wmo:42047:1,2008-07-11T10:00:00Z,27.8966,-93.5973,-2.0,28.76,11111222 
TABS,ioos:station:wmo:42047:1,2008-07-11T10:30:00Z,27.8966,-93.5973,-2.0,28.75,11111222 
TABS,ioos:station:wmo:42047:1,2008-07-11T11:00:00Z,27.8966,-93.5973,-2.0,28.75,11111222 
TABS,ioos:station:wmo:42047:1,2008-07-11T11:30:00Z,27.8966,-93.5973,-2.0,28.73,11111222 
TABS,ioos:station:wmo:42047:1,2008-07-11T12:00:00Z,27.8966,-93.5973,-2.0,28.71,11111222 
TABS,ioos:station:wmo:42047:1,2008-07-11T12:30:00Z,27.8966,-93.5973,-2.0,28.7,11111222 
TABS,ioos:station:wmo:42047:1,2008-07-11T13:00:00Z,27.8966,-93.5973,-2.0,28.69,11111222 
TABS,ioos:station:wmo:42047:1,2008-07-11T13:30:00Z,27.8966,-93.5973,-2.0,28.71,11111222 
TABS,ioos:station:wmo:42047:1,2008-07-11T14:00:00Z,27.8966,-93.5973,-2.0,28.73,11111222 
TABS,ioos:station:wmo:42047:1,2008-07-11T14:30:00Z,27.8966,-93.5973,-2.0,28.76,11111222 
TABS,ioos:station:wmo:42047:1,2008-07-11T15:00:00Z,27.8966,-93.5973,-2.0,28.8,11111222 
TABS,ioos:station:wmo:42047:1,2008-07-11T15:30:00Z,27.8966,-93.5973,-2.0,28.86,11111222 
TABS,ioos:station:wmo:42047:1,2008-07-11T16:00:00Z,27.8966,-93.5973,-2.0,28.9,11111222 
TABS,ioos:station:wmo:42047:1,2008-07-11T16:30:00Z,27.8966,-93.5973,-2.0,28.92,11111222 
TABS,ioos:station:wmo:42047:1,2008-07-11T17:00:00Z,27.8966,-93.5973,-2.0,28.96,11111222 
TABS,ioos:station:wmo:42047:1,2008-07-11T17:30:00Z,27.8966,-93.5973,-2.0,29.04,11111222 
TABS,ioos:station:wmo:42047:1,2008-07-11T18:00:00Z,27.8966,-93.5973,-2.0,29.1,11111222 
TABS,ioos:station:wmo:42047:1,2008-07-11T18:30:00Z,27.8966,-93.5973,-2.0,29.22,11111222 
TABS,ioos:station:wmo:42047:1,2008-07-11T19:00:00Z,27.8966,-93.5973,-2.0,29.32,11111222 
TABS,ioos:station:wmo:42047:1,2008-07-11T19:30:00Z,27.8966,-93.5973,-2.0,29.41,11111222 
TABS,ioos:station:wmo:42047:1,2008-07-11T20:00:00Z,27.8966,-93.5973,-2.0,29.46,11111222 
TABS,ioos:station:wmo:42047:1,2008-07-11T20:30:00Z,27.8966,-93.5973,-2.0,29.59,11111222 
TABS,ioos:station:wmo:42047:1,2008-07-11T21:00:00Z,27.8966,-93.5973,-2.0,29.63,11111222 
TABS,ioos:station:wmo:42047:1,2008-07-11T21:30:00Z,27.8966,-93.5973,-2.0,29.59,11111222 
TABS,ioos:station:wmo:42047:1,2008-07-11T22:00:00Z,27.8966,-93.5973,-2.0,29.54,11111222 
TABS,ioos:station:wmo:42047:1,2008-07-11T22:30:00Z,27.8966,-93.5973,-2.0,29.53,11111222 
TABS,ioos:station:wmo:42047:1,2008-07-11T23:00:00Z,27.8966,-93.5973,-2.0,29.53,11111222 
TABS,ioos:station:wmo:42047:1,2008-07-11T23:30:00Z,27.8966,-93.5973,-2.0,29.53,11111222 
TABS,ioos:station:wmo:42047:1,2008-07-12T00:00:00Z,27.8966,-93.5973,-2.0,29.52,11111222 
TABS,ioos:station:wmo:42047:1,2008-07-12T00:30:00Z,27.8966,-93.5973,-2.0,29.46,11111222 
TABS,ioos:station:wmo:42047:1,2008-07-12T01:00:00Z,27.8966,-93.5973,-2.0,29.45,11111222 
TABS,ioos:station:wmo:42047:1,2008-07-12T01:30:00Z,27.8966,-93.5973,-2.0,29.4,11111222 
TABS,ioos:station:wmo:42047:1,2008-07-12T02:00:00Z,27.8966,-93.5973,-2.0,29.36,11111222 
TABS,ioos:station:wmo:42047:1,2008-07-12T02:30:00Z,27.8966,-93.5973,-2.0,29.33,11111222 
TABS,ioos:station:wmo:42047:1,2008-07-12T03:00:00Z,27.8966,-93.5973,-2.0,29.27,11111222 
TABS,ioos:station:wmo:42047:1,2008-07-12T03:30:00Z,27.8966,-93.5973,-2.0,29.22,11111222 
TABS,ioos:station:wmo:42047:1,2008-07-12T04:00:00Z,27.8966,-93.5973,-2.0,29.2,11111222 
TABS,ioos:station:wmo:42047:1,2008-07-12T04:30:00Z,27.8966,-93.5973,-2.0,29.18,11111222 
TABS,ioos:station:wmo:42047:1,2008-07-12T05:00:00Z,27.8966,-93.5973,-2.0,29.15,11111222 
TABS,ioos:station:wmo:42047:1,2008-07-12T05:30:00Z,27.8966,-93.5973,-2.0,29.12,11111222 
TABS,ioos:station:wmo:42047:1,2008-07-12T06:00:00Z,27.8966,-93.5973,-2.0,29.08,11111222 
TABS,ioos:station:wmo:42047:1,2008-07-12T06:30:00Z,27.8966,-93.5973,-2.0,29.05,11111222 
TABS,ioos:station:wmo:42047:1,2008-07-12T07:00:00Z,27.8966,-93.5973,-2.0,29.02,11111222 